Date String (YYYY-MM-DD hh:mm:ss) UTC,Instrument flags,Ambient pressure (hPa),Sample flow (lpm),Bypass flow (lpm),Sample temperature (°C),Ambient temperature (°C),ASC tube jacket temperature (°C),LED temperature (°C),Box temperature (°C),Sample RH (%),Span deviation,Mass concentration (μg/m³),Mass concentration (μg/m³),Mass concentration (μg/m³)
DateTimeUTC,F1_M11,P_M11,Q1_M11,Q2_M11,T1_M11,T2_M11,T3_M11,T4_M11,T5_M11,U1_M11,ZSPAN_M11,X0_M11,X2_M11,X1_M11
2022-10-15 02:00:00,,0824.1,5.02,0.00,29.6,28.2,00.0,38.4,31.5,06.9,0000.0,0008.47,0002.46,0001.95
2022-10-15 02:01:00,,0824.1,5.00,0.00,29.6,28.2,00.0,38.4,31.5,06.9,0000.0,0008.43,0002.44,0001.92
2022-10-15 02:02:00,,0824.1,5.00,0.00,29.6,28.3,00.0,38.4,31.5,06.9,0000.0,0008.07,0002.40,0001.91
2022-10-15 02:03:00,,0824.1,5.00,0.00,29.6,28.3,00.0,38.4,31.5,06.6,0000.0,0008.01,0002.39,0001.90
2022-10-15 02:04:00,,0824.1,4.99,0.00,29.6,28.3,00.0,38.4,31.5,06.5,0000.0,0008.24,0002.41,0001.91
2022-10-15 02:05:00,,0824.1,5.01,0.00,29.7,28.3,00.0,38.4,31.5,06.5,0000.0,0008.15,0002.42,0001.91
2022-10-15 02:06:00,,0824.1,4.99,0.00,29.7,28.4,00.0,38.4,31.5,06.5,0000.0,0007.69,0002.37,0001.91
2022-10-15 02:07:00,,0824.2,4.99,0.00,29.7,28.4,00.0,38.5,31.6,06.5,0000.0,0007.65,0002.40,0001.91
2022-10-15 02:08:00,,0824.2,5.01,0.00,29.7,28.4,00.0,38.5,31.6,06.5,0000.0,0007.26,0002.43,0001.92
2022-10-15 02:09:00,,0824.2,4.99,0.00,29.7,28.4,00.0,38.5,31.6,06.6,0000.0,0006.13,0002.46,0001.93
2022-10-15 02:10:00,,0824.3,4.99,0.00,29.7,28.5,00.0,38.5,31.6,06.5,0000.0,0005.11,0002.45,0001.92
2022-10-15 02:11:00,,0824.3,4.99,0.00,29.8,28.5,00.0,38.5,31.7,06.5,0000.0,0004.75,0002.45,0001.91
2022-10-15 02:12:00,,0824.3,5.01,0.00,29.8,28.5,00.0,38.5,31.7,06.5,0000.0,0004.71,0002.44,0001.93
2022-10-15 02:13:00,,0824.3,4.99,0.00,29.8,28.5,00.0,38.5,31.7,06.5,0000.0,0004.87,0002.44,0001.92
2022-10-15 02:14:00,,0824.3,5.01,0.00,29.8,28.6,00.0,38.6,31.7,06.5,0000.0,0004.52,0002.44,0001.93
2022-10-15 02:15:00,,0824.3,4.99,0.00,29.8,28.6,00.0,38.6,31.7,06.4,0000.0,0004.82,0002.42,0001.93
2022-10-15 02:16:00,,0824.3,5.01,0.00,29.8,28.6,00.0,38.6,31.7,06.4,0000.0,0004.96,0002.45,0001.92
2022-10-15 02:17:00,,0824.3,4.99,0.00,29.8,28.7,00.0,38.6,31.7,06.5,0000.0,0005.03,0002.48,0001.94
2022-10-15 02:18:00,,0824.2,5.01,0.00,29.9,28.7,00.0,38.6,31.7,06.4,0000.0,0004.98,0002.48,0001.94
2022-10-15 02:19:00,,0824.2,5.00,0.00,29.9,28.7,00.0,38.6,31.8,06.4,0000.0,0004.76,0002.44,0001.93
2022-10-15 02:20:00,,0824.2,4.99,0.00,29.9,28.7,00.0,38.7,31.8,06.4,0000.0,0004.80,0002.44,0001.92
2022-10-15 02:21:00,,0824.2,5.01,0.00,29.9,28.7,00.0,38.7,31.8,06.4,0000.0,0004.73,0002.42,0001.90
2022-10-15 02:22:00,,0824.3,4.99,0.00,29.9,28.8,00.0,38.7,31.9,06.4,0000.0,0004.63,0002.40,0001.91
2022-10-15 02:23:00,,0824.3,4.99,0.00,30.0,28.8,00.0,38.7,31.9,06.5,0000.0,0004.76,0002.41,0001.92
2022-10-15 02:24:00,,0824.2,5.01,0.00,30.0,28.8,00.0,38.7,31.9,06.5,0000.0,0005.81,0002.46,0001.94
2022-10-15 02:25:00,,0824.3,4.99,0.00,30.0,28.7,00.0,38.7,31.9,06.5,0000.0,0005.78,0002.48,0001.96
2022-10-15 02:26:00,,0824.2,5.00,0.00,30.0,27.4,00.0,38.7,31.8,06.5,0000.0,0005.22,0002.50,0001.98
2022-10-15 02:27:00,,0824.2,5.00,0.00,29.9,26.4,00.0,38.6,31.6,06.5,0000.0,0004.82,0002.49,0002.00
2022-10-15 02:28:00,,0824.2,5.00,0.00,29.9,26.4,00.0,38.6,31.5,06.5,0000.0,0005.37,0002.52,0002.02
2022-10-15 02:29:00,,0824.3,5.01,0.00,29.8,26.6,00.0,38.6,31.4,06.6,0000.0,0005.74,0002.54,0002.04
2022-10-15 02:30:00,,0824.3,5.00,0.00,29.7,27.0,00.0,38.5,31.4,06.6,0000.0,0005.70,0002.57,0002.07
2022-10-15 02:31:00,,0824.3,5.00,0.00,29.7,27.3,00.0,38.5,31.4,06.6,0000.0,0005.72,0002.61,0002.10
2022-10-15 02:32:00,,0824.4,4.98,0.00,29.7,27.5,00.0,38.5,31.4,06.6,0000.0,0006.10,0002.61,0002.11
2022-10-15 02:33:00,,0824.2,5.01,0.00,29.6,27.7,00.0,38.5,31.4,06.7,0000.0,0006.22,0002.63,0002.13
2022-10-15 02:34:00,,0824.2,4.99,0.00,29.6,27.9,00.0,38.5,31.4,06.7,0000.0,0006.37,0002.64,0002.13
2022-10-15 02:35:00,,0824.2,5.02,0.00,29.6,28.0,00.0,38.5,31.4,06.7,0000.0,0005.26,0002.65,0002.13
2022-10-15 02:36:00,,0824.2,4.99,0.00,29.6,28.1,00.0,38.5,31.5,06.7,0000.0,0005.29,0002.65,0002.15
2022-10-15 02:37:00,,0824.3,5.00,0.00,29.6,28.2,00.0,38.5,31.5,06.7,0000.0,0005.32,0002.64,0002.17
2022-10-15 02:38:00,,0824.3,5.00,0.00,29.6,28.3,00.0,38.5,31.5,06.7,0000.0,0005.31,0002.66,0002.18
2022-10-15 02:39:00,,0824.3,4.99,0.00,29.7,28.3,00.0,38.5,31.5,06.7,0000.0,0004.68,0002.64,0002.20
2022-10-15 02:40:00,,0824.3,5.01,0.00,29.7,28.4,00.0,38.5,31.5,06.7,0000.0,0004.49,0002.68,0002.22
2022-10-15 02:41:00,,0824.3,4.99,0.00,29.7,28.4,00.0,38.5,31.6,06.7,0000.0,0004.75,0002.70,0002.22
2022-10-15 02:42:00,,0824.3,5.00,0.00,29.7,28.4,00.0,38.5,31.6,06.7,0000.0,0004.87,0002.72,0002.23
2022-10-15 02:43:00,,0824.4,5.01,0.00,29.7,28.5,00.0,38.5,31.6,06.7,0000.0,0004.49,0002.72,0002.24
2022-10-15 02:44:00,,0824.4,4.98,0.00,29.7,28.5,00.0,38.5,31.7,06.6,0000.0,0004.49,0002.78,0002.25
2022-10-15 02:45:00,,0824.4,5.01,0.00,29.8,28.5,00.0,38.5,31.7,06.7,0000.0,0004.35,0002.80,0002.26
2022-10-15 02:46:00,,0824.5,4.99,0.00,29.8,28.5,00.0,38.5,31.7,07.0,0000.0,0004.25,0002.76,0002.25
2022-10-15 02:47:00,,0824.5,5.01,0.00,29.8,28.5,00.0,38.6,31.7,07.3,0000.0,0004.38,0002.78,0002.25
2022-10-15 02:48:00,,0824.5,4.98,0.00,29.8,28.5,00.0,38.6,31.7,07.7,0000.0,0004.65,0002.90,0002.27
2022-10-15 02:49:00,,0824.4,5.01,0.00,29.8,28.5,00.0,38.6,31.7,07.4,0000.0,0005.61,0002.97,0002.27
2022-10-15 02:50:00,,0824.4,4.99,0.00,29.8,28.5,00.0,38.6,31.7,07.6,0000.0,0006.09,0003.04,0002.27
2022-10-15 02:51:00,,0824.4,5.01,0.00,29.8,28.5,00.0,38.6,31.7,07.4,0000.0,0006.41,0003.10,0002.28
2022-10-15 02:52:00,,0824.4,5.00,0.00,29.8,28.5,00.0,38.6,31.7,07.0,0000.0,0006.80,0003.08,0002.29
2022-10-15 02:53:00,,0824.4,5.01,0.00,29.8,28.5,00.0,38.6,31.7,06.9,0000.0,0007.18,0003.09,0002.31
2022-10-15 02:54:00,,0824.4,5.00,0.00,29.9,28.5,00.0,38.6,31.8,06.7,0000.0,0007.21,0003.11,0002.33
2022-10-15 02:55:00,,0824.4,5.00,0.00,29.9,28.5,00.0,38.6,31.7,06.7,0000.0,0007.20,0003.07,0002.34
2022-10-15 02:56:00,,0824.4,5.00,0.00,29.9,28.5,00.0,38.6,31.7,06.7,0000.0,0007.86,0003.04,0002.35
2022-10-15 02:57:00,,0824.6,5.01,0.00,29.9,28.5,00.0,38.6,31.7,06.5,0000.0,0007.89,0003.09,0002.37
2022-10-15 02:58:00,,0824.5,4.99,0.00,29.9,28.5,00.0,38.7,31.7,06.5,0000.0,0007.97,0003.11,0002.37
2022-10-15 02:59:00,,0824.5,4.99,0.00,29.9,28.6,00.0,38.7,31.7,06.4,0000.0,0008.13,0003.04,0002.37
